QPF
0.00 0.00 0.00 0.00 0.00 0.00 0.00 0.00 0.00 0.00 0.00 0.00 0.00 0.00 0.00 0.00 0.00 0.00 0.00 0.00 0.00 0.00 0.00 0.00 0.00 0.00 0.00 0.00 0.00 0.00 0.00 0.01 0.00 0.00 0.00 0.00 0.00 0.00 0.00 0.01 0.00 0.00 0.00 0.00
0.00 0.00 0.00 0.00 0.00 0.00 0.00 0.00 0.00 0.00 0.00 0.00 0.00 0.00 0.00 0.00 0.00 0.00 0.00 0.00 0.00 0.00 0.00 0.00 0.00 0.00 0.00 0.00 0.00 0.00 0.00 0.01 0.01 0.00 0.00 0.00 0.00 0.00 0.00 0.01 0.01 0.00 0.00 0.00
0.00 0.00 0.00 0.00 0.00 0.00 0.00 0.00 0.00 0.00 0.00 0.00 0.00 0.00 0.00 0.00 0.00 0.00 0.00 0.00 0.00 0.00 0.00 0.00 0.00 0.00 0.00 0.00 0.00 0.00 0.00 0.01 0.01 0.00 0.00 0.01 0.00 0.00 0.00 0.00 0.00 0.00 0.00 0.00
0.00 0.00 0.00 0.00 0.00 0.00 0.00 0.00 0.00 0.00 0.00 0.00 0.00 0.00 0.00 0.00 0.00 0.00 0.00 0.00 0.00 0.00 0.00 0.00 0.00 0.00 0.00 0.00 0.00 0.00 0.00 0.00 0.00 0.00 0.00 0.00 0.00 0.00 0.00 0.00 0.00 0.00 0.00 0.00
0.00 0.00 0.00 0.00 0.00 0.00 0.00 0.00 0.00 0.00 0.00 0.00 0.00 0.00 0.00 0.00 0.00 0.00 0.00 0.00 0.00 0.00 0.00 0.00 0.00 0.00 0.00 0.00 0.00 0.00 0.00 0.00 0.00 0.00 0.00 0.00 0.00 0.00 0.00 0.00 0.00 0.00 0.00 0.00
0.00 0.00 0.00 0.00 0.00 0.00 0.00 0.00 0.00 0.00 0.00 0.00 0.00 0.00 0.00 0.00 0.00 0.00 0.00 0.00 0.00 0.00 0.00 0.00 0.00 0.00 0.00 0.00 0.00 0.00 0.00 0.00 0.00 0.00 0.00 0.00 0.00 0.00 0.00 0.00 0.00 0.00 0.00 0.00
0.00 0.00 0.00 0.00 0.00 0.00 0.00 0.00 0.00 0.00 0.00 0.00 0.00 0.00 0.00 0.00 0.00 0.00 0.00 0.00 0.00 0.00 0.00 0.00 0.00 0.00 0.00 0.00 0.00 0.00 0.00 0.00 0.00 0.00 0.00 0.00 0.00 0.00 0.00 0.00 0.00 0.00 0.00 0.00
0.00 0.00 0.00 0.00 0.00 0.00 0.00 0.00 0.00 0.00 0.00 0.00 0.00 0.00 0.00 0.00 0.00 0.00 0.00 0.00 0.00 0.00 0.00 0.00 0.00 0.00 0.00 0.00 0.00 0.00 0.00 0.00 0.00 0.00 0.00 0.00 0.00 0.00 0.00 0.00 0.00 0.00 0.00 0.00
0.00 0.00 0.00 0.00 0.00 0.00 0.00 0.00 0.00 0.00 0.00 0.00 0.00 0.00 0.00 0.00 0.00 0.00 0.00 0.00 0.00 0.00 0.00 0.00 0.00 0.00 0.00 0.00 0.00 0.00 0.00 0.00 0.00 0.00 0.00 0.00 0.00 0.00 0.00 0.00 0.00 0.00 0.00 0.00
0.01 0.00 0.00 0.00 0.00 0.00 0.00 0.00 0.00 0.00 0.00 0.00 0.00 0.00 0.00 0.00 0.00 0.00 0.00 0.00 0.00 0.00 0.00 0.00 0.00 0.00 0.00 0.00 0.00 0.00 0.00 0.00 0.00 0.00 0.00 0.00 0.00 0.00 0.00 0.00 0.00 0.00 0.00 0.00
0.01 0.00 0.00 0.00 0.00 0.00 0.00 0.00 0.00 0.00 0.00 0.00 0.00 0.00 0.00 0.00 0.00 0.00 0.00 0.00 0.00 0.00 0.00 0.00 0.00 0.00 0.00 0.00 0.00 0.00 0.00 0.00 0.00 0.00 0.00 0.00 0.00 0.00 0.00 0.00 0.00 0.00 0.00 0.00
0.00 0.00 0.00 0.00 0.00 0.00 0.00 0.00 0.00 0.00 0.00 0.00 0.00 0.00 0.00 0.00 0.00 0.00 0.00 0.00 0.00 0.00 0.00 0.00 0.00 0.00 0.00 0.00 0.00 0.00 0.00 0.00 0.00 0.00 0.00 0.00 0.00 0.00 0.00 0.00 0.00 0.00 0.00 0.00
0.00 0.00 0.00 0.00 0.00 0.00 0.00 0.00 0.00 0.00 0.00 0.00 0.00 0.00 0.00 0.00 0.00 0.00 0.00 0.00 0.00 0.00 0.00 0.00 0.00 0.00 0.00 0.00 0.00 0.00 0.00 0.00 0.00 0.00 0.00 0.00 0.00 0.00 0.00 0.00 0.00 0.00 0.00 0.00
0.00 0.00 0.00 0.00 0.00 0.00 0.00 0.00 0.00 0.00 0.00 0.00 0.00 0.00 0.00 0.00 0.00 0.00 0.00 0.00 0.00 0.00 0.00 0.00 0.00 0.00 0.00 0.00 0.00 0.00 0.00 0.00 0.00 0.00 0.00 0.00 0.00 0.00 0.00 0.00 0.00 0.00 0.00 0.00
0.00 0.00 0.00 0.00 0.00 0.00 0.00 0.00 0.00 0.00 0.00 0.00 0.00 0.00 0.00 0.00 0.00 0.00 0.00 0.00 0.00 0.00 0.00 0.00 0.00 0.00 0.00 0.00 0.00 0.00 0.00 0.00 0.00 0.00 0.00 0.00 0.00 0.00 0.00 0.00 0.00 0.00 0.00 0.00
0.00 0.00 0.00 0.00 0.00 0.00 0.00 0.00 0.00 0.00 0.00 0.00 0.00 0.00 0.00 0.00 0.00 0.00 0.00 0.00 0.00 0.00 0.00 0.00 0.00 0.00 0.00 0.00 0.00 0.00 0.00 0.00 0.00 0.00 0.00 0.00 0.00 0.00 0.00 0.00 0.00 0.00 0.00 0.00
0.00 0.00 0.00 0.00 0.00 0.00 0.00 0.00 0.00 0.00 0.00 0.00 0.00 0.00 0.00 0.00 0.00 0.00 0.00 0.00 0.00 0.00 0.00 0.00 0.00 0.00 0.00 0.00 0.00 0.00 0.00 0.00 0.00 0.00 0.00 0.00 0.00 0.00 0.00 0.00 0.00 0.00 0.00 0.00
0.00 0.00 0.00 0.00 0.00 0.00 0.00 0.00 0.00 0.00 0.00 0.00 0.00 0.00 0.00 0.00 0.00 0.00 0.00 0.00 0.00 0.00 0.00 0.00 0.00 0.00 0.00 0.00 0.00 0.00 0.00 0.00 0.00 0.00 0.00 0.00 0.00 0.00 0.00 0.00 0.00 0.00 0.00 0.00
0.00 0.00 0.00 0.00 0.00 0.00 0.00 0.00 0.00 0.00 0.00 0.00 0.00 0.00 0.00 0.00 0.00 0.00 0.00 0.00 0.00 0.00 0.00 0.00 0.00 0.00 0.00 0.00 0.00 0.00 0.00 0.00 0.00 0.00 0.00 0.00 0.00 0.00 0.00 0.00 0.00 0.00 0.00 0.00
0.00 0.00 0.00 0.00 0.00 0.00 0.00 0.00 0.00 0.00 0.00 0.00 0.00 0.00 0.00 0.00 0.00 0.00 0.00 0.00 0.00 0.00 0.00 0.00 0.00 0.00 0.00 0.00 0.00 0.00 0.00 0.00 0.00 0.00 0.00 0.00 0.00 0.00 0.00 0.00 0.00 0.00 0.00 0.00
0.00 0.00 0.00 0.00 0.00 0.00 0.00 0.00 0.00 0.00 0.00 0.00 0.00 0.00 0.00 0.00 0.00 0.00 0.00 0.00 0.00 0.00 0.00 0.00 0.00 0.00 0.00 0.00 0.00 0.00 0.00 0.00 0.00 0.00 0.00 0.00 0.00 0.00 0.00 0.00 0.00 0.00 0.00 0.00
0.00 0.00 0.00 0.00 0.00 0.00 0.00 0.00 0.00 0.00 0.00 0.00 0.00 0.00 0.00 0.00 0.00 0.00 0.00 0.00 0.00 0.00 0.00 0.00 0.00 0.00 0.00 0.00 0.00 0.00 0.00 0.00 0.00 0.00 0.00 0.00 0.00 0.00 0.00 0.00 0.00 0.00 0.00 0.00
0.00 0.00 0.00 0.00 0.00 0.00 0.00 0.00 0.00 0.00 0.00 0.00 0.00 0.00 0.00 0.00 0.00 0.00 0.00 0.00 0.00 0.00 0.00 0.00 0.00 0.00 0.00 0.00 0.00 0.00 0.00 0.00 0.00 0.00 0.00 0.00 0.00 0.00 0.00 0.00 0.00 0.00 0.00 0.00
0.00 0.00 0.00 0.00 0.00 0.00 0.00 0.00 0.00 0.00 0.00 0.00 0.00 0.00 0.00 0.00 0.00 0.00 0.00 0.00 0.00 0.00 0.00 0.00 0.00 0.00 0.00 0.00 0.00 0.00 0.00 0.00 0.00 0.00 0.00 0.00 0.00 0.00 0.00 0.00 0.00 0.00 0.00 0.00
0.00 0.00 0.00 0.00 0.00 0.00 0.00 0.00 0.00 0.00 0.00 0.00 0.00 0.00 0.00 0.00 0.00 0.00 0.00 0.00 0.00 0.00 0.00 0.00 0.00 0.00 0.00 0.00 0.00 0.00 0.00 0.00 0.00 0.00 0.00 0.00 0.00 0.00 0.00 0.00 0.00 0.00 0.00 0.00
0.00 0.00 0.00 0.00 0.00 0.00 0.00 0.00 0.00 0.00 0.00 0.00 0.00 0.00 0.00 0.00 0.00 0.00 0.00 0.00 0.00 0.00 0.00 0.00 0.00 0.00 0.00 0.00 0.00 0.00 0.00 0.00 0.00 0.00 0.00 0.00 0.00 0.00 0.00 0.00 0.00 0.00 0.00 0.00
0.00 0.00 0.00 0.00 0.00 0.00 0.00 0.00 0.00 0.00 0.00 0.00 0.00 0.00 0.00 0.00 0.00 0.00 0.00 0.00 0.00 0.00 0.00 0.00 0.00 0.00 0.00 0.00 0.00 0.00 0.00 0.00 0.00 0.00 0.00 0.00 0.00 0.00 0.00 0.00 0.00 0.00 0.00 0.00
MSLP
999.82 1001.67 1003.79 1005.81 1007.19 1009.58 1011.29 1013.71 1014.29 1015.72 1016.06 1017.38 1017.17 1016.23 1015.16 1014.39 1014.72 1014.65 1015.56 1016.59 1017.59 1018.70 1019.85 1020.18 1019.92 1019.43 1018.75 1018.11 1017.95 1017.65 1017.56 1016.99 1015.10 1013.03 1011.84 1012.07 1011.93 1011.79 1012.08 1012.19 1011.80 1012.21 1013.67 1016.48
995.62 998.60 1001.21 1003.41 1005.55 1006.16 1010.04 1012.50 1013.55 1015.94 1015.72 1016.13 1016.37 1015.66 1015.00 1014.32 1014.57 1014.79 1015.47 1016.63 1017.39 1018.43 1019.63 1019.99 1019.77 1019.46 1018.45 1018.09 1017.86 1017.53 1017.54 1016.90 1015.30 1013.14 1012.95 1012.67 1012.70 1012.39 1012.12 1012.11 1012.35 1012.63 1014.22 1017.01
992.57 995.89 998.91 1001.65 1004.37 1005.75 1007.16 1011.11 1013.34 1015.51 1015.64 1015.19 1015.10 1014.91 1014.56 1014.65 1014.67 1014.83 1015.16 1016.53 1017.19 1018.54 1019.26 1019.41 1019.45 1019.31 1018.45 1017.97 1017.59 1017.45 1017.21 1016.92 1016.50 1016.07 1015.91 1015.61 1014.86 1013.70 1012.15 1012.21 1012.82 1014.31 1015.93 1017.89
991.51 994.84 998.16 1001.01 1003.13 1004.96 1006.23 1009.59 1011.09 1011.01 1013.16 1014.20 1014.09 1013.87 1014.01 1014.40 1014.80 1014.81 1015.14 1016.41 1016.91 1017.82 1018.62 1018.95 1019.09 1018.91 1018.51 1017.72 1017.43 1017.45 1017.30 1017.09 1016.79 1016.42 1016.09 1016.20 1016.33 1015.45 1014.45 1013.98 1014.32 1015.31 1017.61 1018.80
991.74 995.05 998.03 1001.01 1002.30 1005.00 1006.39 1008.31 1009.41 1010.71 1011.45 1012.86 1013.08 1013.20 1013.93 1014.03 1014.36 1014.65 1015.35 1015.95 1016.94 1017.44 1017.82 1017.98 1018.25 1018.30 1018.35 1017.91 1017.73 1017.46 1017.36 1017.02 1016.67 1016.07 1016.07 1016.44 1017.05 1016.85 1016.42 1016.25 1016.70 1017.37 1018.46 1019.82
993.43 996.09 998.61 1001.07 1002.35 1004.43 1006.25 1007.55 1008.03 1008.28 1011.51 1012.13 1012.51 1012.82 1013.33 1013.70 1014.02 1014.95 1015.06 1015.90 1016.71 1017.22 1017.33 1017.39 1017.37 1017.61 1017.79 1017.73 1017.81 1017.57 1017.44 1017.07 1016.49 1015.81 1016.02 1016.55 1017.79 1018.42 1018.24 1018.06 1018.07 1018.26 1019.11 1020.81
995.64 997.65 999.66 1001.28 1003.03 1004.59 1005.42 1006.67 1007.30 1008.80 1011.49 1011.60 1012.00 1012.44 1012.83 1013.39 1013.89 1014.70 1015.71 1016.13 1016.52 1017.09 1017.05 1017.03 1017.07 1017.27 1017.34 1017.35 1017.41 1017.53 1017.34 1017.02 1016.42 1015.68 1015.98 1017.05 1018.41 1019.26 1019.45 1019.33 1019.87 1020.19 1020.70 1021.46
997.98 999.36 1000.99 1002.75 1003.93 1004.65 1005.63 1006.41 1006.99 1008.34 1010.83 1011.43 1012.16 1012.50 1013.02 1013.85 1014.41 1015.18 1015.87 1016.47 1016.75 1016.87 1016.93 1016.83 1016.82 1016.85 1016.87 1016.94 1016.76 1017.03 1017.29 1016.99 1016.45 1015.85 1016.30 1017.67 1018.67 1019.54 1019.83 1019.85 1020.87 1021.30 1021.41 1021.66
999.77 1001.14 1002.38 1003.53 1004.42 1004.84 1004.96 1006.83 1007.75 1008.47 1010.05 1011.91 1011.51 1012.33 1013.15 1014.03 1014.91 1015.79 1016.40 1016.89 1016.94 1016.92 1016.96 1016.92 1016.74 1016.72 1016.68 1016.79 1016.71 1016.75 1016.97 1016.89 1016.83 1016.40 1016.80 1017.88 1019.35 1019.91 1020.12 1020.11 1021.02 1021.80 1022.05 1022.27
1001.54 1002.35 1003.06 1003.45 1004.42 1004.56 1005.39 1007.45 1007.57 1007.81 1010.52 1012.01 1011.93 1012.56 1013.49 1014.18 1014.89 1015.97 1016.73 1017.04 1017.27 1017.22 1017.23 1017.29 1017.22 1017.01 1016.97 1016.87 1016.78 1017.00 1016.92 1017.04 1017.16 1017.26 1017.74 1019.07 1020.09 1020.10 1020.12 1020.81 1022.37 1022.44 1022.71 1022.95
1003.07 1003.79 1004.49 1004.95 1005.17 1005.11 1005.35 1008.00 1007.75 1007.33 1010.44 1012.51 1012.43 1012.70 1013.54 1014.27 1014.78 1015.75 1016.96 1017.40 1017.60 1017.71 1017.73 1017.79 1017.70 1017.41 1017.40 1017.29 1017.25 1017.19 1017.48 1017.73 1017.99 1018.24 1018.87 1020.18 1020.63 1020.27 1020.68 1021.90 1022.52 1023.01 1023.37 1023.84
1003.81 1004.41 1004.87 1005.05 1005.09 1005.35 1005.72 1007.68 1008.15 1008.08 1009.95 1012.95 1013.25 1013.41 1013.66 1013.51 1014.15 1015.31 1016.68 1017.00 1017.23 1017.55 1017.93 1018.29 1018.16 1017.86 1017.70 1017.52 1017.43 1017.75 1018.17 1018.55 1018.89 1019.81 1020.55 1021.40 1021.67 1021.73 1022.21 1022.32 1022.94 1023.53 1023.97 1024.59
1004.49 1004.82 1004.99 1005.38 1005.69 1006.04 1006.41 1008.33 1008.85 1008.87 1011.50 1013.05 1013.53 1014.21 1014.35 1014.03 1014.40 1014.63 1015.68 1017.02 1017.16 1017.47 1017.83 1018.13 1018.37 1018.13 1018.00 1017.86 1018.14 1018.29 1018.81 1019.11 1019.48 1020.31 1021.34 1021.89 1022.47 1022.93 1023.23 1023.49 1023.87 1024.15 1024.83 1025.39
1005.11 1005.42 1005.82 1006.20 1006.60 1006.97 1007.08 1008.52 1009.37 1009.41 1011.16 1013.47 1015.04 1014.58 1014.79 1015.03 1014.81 1014.96 1015.28 1016.19 1017.04 1017.57 1017.92 1018.07 1018.20 1018.13 1018.33 1018.36 1018.58 1018.83 1019.52 1019.62 1020.02 1020.84 1021.65 1022.45 1023.07 1023.55 1023.94 1024.39 1024.71 1025.18 1025.83 1026.17
1006.12 1006.47 1006.63 1006.89 1007.17 1007.60 1007.99 1008.97 1010.06 1009.98 1010.63 1013.47 1014.95 1015.07 1015.59 1015.57 1015.51 1015.81 1016.08 1016.47 1017.18 1017.71 1018.06 1018.14 1018.39 1018.49 1018.58 1018.77 1018.99 1019.50 1019.95 1020.22 1020.45 1020.86 1021.39 1022.20 1023.31 1023.97 1024.43 1024.89 1025.49 1025.99 1026.39 1027.02
1006.87 1007.19 1007.37 1007.69 1008.03 1008.19 1008.35 1010.13 1010.62 1010.53 1010.65 1012.74 1015.15 1016.23 1016.15 1016.20 1016.19 1016.44 1016.78 1017.15 1017.49 1017.90 1018.08 1018.51 1018.68 1018.68 1018.73 1018.93 1019.46 1020.23 1020.51 1020.75 1020.88 1021.41 1022.06 1022.61 1023.62 1024.35 1024.91 1025.43 1026.21 1026.69 1027.10 1027.55
1007.57 1008.00 1008.20 1008.46 1008.42 1008.78 1010.20 1011.18 1011.53 1011.21 1011.21 1013.05 1015.47 1016.30 1016.41 1016.37 1016.62 1017.12 1017.41 1017.61 1018.07 1018.15 1018.48 1018.76 1018.72 1018.78 1018.74 1019.11 1019.63 1020.47 1020.89 1021.27 1021.65 1022.07 1022.59 1023.54 1024.12 1024.82 1025.54 1026.13 1026.87 1027.33 1027.75 1028.22
1008.39 1008.77 1008.82 1009.31 1009.42 1009.99 1011.09 1011.67 1011.47 1011.45 1012.15 1013.27 1015.29 1016.49 1016.64 1016.57 1016.99 1017.69 1018.21 1018.27 1018.47 1018.63 1018.87 1018.98 1018.89 1019.15 1019.17 1019.63 1020.13 1020.77 1021.27 1021.64 1022.14 1022.61 1022.86 1023.25 1024.51 1025.49 1026.25 1026.85 1027.39 1027.71 1028.23 1028.89
1009.00 1009.32 1009.54 1009.75 1010.85 1011.87 1012.51 1012.18 1011.99 1012.00 1012.99 1014.31 1015.40 1016.21 1016.76 1016.87 1017.55 1018.13 1018.63 1018.63 1018.86 1019.19 1018.96 1019.01 1019.30 1019.57 1019.73 1019.93 1020.24 1020.75 1021.25 1021.68 1022.53 1023.23 1023.73 1024.39 1025.05 1025.97 1026.67 1027.22 1027.84 1028.24 1028.98 1029.67
1009.41 1009.95 1010.95 1012.38 1013.00 1012.74 1012.48 1012.61 1012.92 1013.53 1014.49 1015.11 1016.14 1016.56 1016.80 1017.24 1017.98 1018.41 1018.75 1018.87 1019.01 1019.05 1019.19 1019.11 1019.40 1019.77 1020.35 1020.76 1020.89 1021.14 1021.60 1022.12 1022.77 1023.47 1024.43 1024.99 1025.65 1026.39 1027.20 1027.88 1028.50 1028.99 1029.90 1030.75
1010.59 1011.95 1012.85 1013.33 1013.01 1013.02 1013.48 1014.38 1014.85 1015.50 1016.00 1016.25 1016.78 1016.73 1016.81 1017.52 1017.63 1018.13 1018.73 1018.85 1019.05 1019.02 1019.22 1019.31 1019.81 1019.99 1020.58 1021.36 1021.71 1022.04 1022.34 1022.81 1023.36 1023.61 1024.02 1024.79 1025.54 1026.71 1027.75 1028.67 1029.39 1030.20 1031.02 1031.68
1011.39 1011.78 1012.89 1013.32 1013.59 1014.01 1014.60 1015.52 1015.87 1015.95 1016.52 1016.94 1017.06 1017.07 1017.02 1017.49 1017.51 1017.98 1018.80 1018.78 1019.13 1019.13 1019.31 1019.67 1020.03 1020.09 1020.87 1021.72 1022.45 1023.01 1023.43 1023.87 1024.39 1024.78 1025.26 1025.91 1026.65 1027.54 1028.52 1029.55 1030.46 1031.13 1031.83 1032.53
1011.92 1012.31 1013.54 1014.08 1014.88 1015.15 1015.39 1016.01 1016.36 1016.61 1016.68 1016.94 1017.06 1017.39 1017.34 1017.65 1017.71 1018.36 1018.40 1018.85 1019.32 1019.39 1019.70 1019.86 1019.83 1020.68 1021.59 1022.41 1023.20 1023.97 1024.53 1024.98 1025.55 1026.21 1026.75 1027.34 1028.05 1028.75 1029.45 1030.43 1031.30 1031.95 1032.57 1033.12
1013.16 1013.87 1014.80 1015.28 1015.62 1015.65 1015.77 1015.91 1016.11 1016.48 1016.53 1016.70 1016.96 1017.45 1017.47 1018.11 1018.24 1018.82 1018.85 1019.44 1019.36 1019.76 1020.17 1019.92 1020.16 1021.08 1022.15 1023.09 1023.93 1024.73 1025.51 1026.14 1026.71 1027.37 1027.90 1028.46 1029.09 1029.95 1030.75 1031.25 1031.81 1032.32 1032.80 1033.25
1014.33 1014.65 1015.65 1015.91 1015.96 1015.77 1015.79 1015.97 1016.12 1016.37 1016.58 1016.61 1017.01 1017.51 1017.82 1018.54 1018.83 1018.97 1019.29 1019.74 1019.92 1020.15 1019.93 1020.15 1020.74 1021.64 1022.69 1023.76 1024.68 1025.56 1026.36 1027.14 1027.81 1028.31 1028.85 1029.46 1029.95 1030.47 1031.22 1031.80 1032.09 1032.33 1032.66 1032.95
1015.09 1015.71 1016.19 1016.20 1016.03 1016.03 1015.93 1016.13 1016.28 1016.54 1016.60 1016.57 1016.75 1017.70 1018.31 1018.91 1019.03 1019.43 1019.62 1019.83 1019.99 1019.88 1020.27 1020.93 1021.82 1022.54 1023.45 1024.37 1025.30 1026.15 1026.87 1027.55 1028.24 1028.83 1029.37 1029.84 1030.33 1030.72 1031.10 1031.64 1031.85 1032.05 1032.21 1032.47
1016.15 1016.97 1016.94 1016.71 1016.71 1016.57 1016.29 1016.05 1016.42 1016.78 1016.70 1017.06 1017.25 1017.86 1018.62 1019.03 1019.37 1019.75 1019.75 1019.81 1019.95 1020.45 1021.07 1021.85 1022.52 1023.09 1024.00 1024.99 1025.89 1026.67 1027.34 1028.03 1028.64 1029.20 1029.73 1030.15 1030.56 1030.79 1030.94 1031.20 1031.30 1031.56 1031.65 1031.76
Thickness
5471 5471 5465 5460 5465 5457 5448 5435 5444 5434 5440 5434 5440 5455 5480 5496 5491 5497 5492 5485 5482 5475 5455 5468 5452 5466 5470 5476 5469 5464 5466 5464 5475 5506 5515 5507 5503 5503 5495 5491 5506 5503 5480 5447
5484 5477 5470 5467 5466 5472 5448 5434 5433 5418 5431 5435 5437 5456 5472 5481 5481 5486 5484 5479 5477 5460 5452 5453 5452 5449 5467 5466 5463 5466 5459 5467 5484 5513 5506 5499 5490 5497 5494 5491 5490 5502 5492 5453
5490 5484 5476 5470 5463 5461 5459 5434 5426 5413 5421 5429 5450 5457 5467 5466 5472 5475 5479 5471 5468 5460 5458 5457 5452 5450 5462 5461 5461 5461 5463 5465 5460 5463 5457 5455 5457 5470 5488 5496 5486 5459 5453 5433
5490 5482 5473 5466 5461 5454 5455 5436 5437 5453 5435 5434 5447 5456 5457 5458 5458 5467 5472 5466 5470 5466 5451 5455 5449 5447 5453 5460 5461 5458 5455 5458 5457 5454 5451 5452 5441 5446 5463 5469 5473 5465 5433 5426
5484 5476 5468 5456 5455 5445 5445 5439 5443 5443 5451 5442 5451 5454 5448 5458 5455 5461 5463 5467 5459 5460 5461 5461 5452 5455 5450 5450 5450 5450 5450 5454 5456 5462 5459 5458 5438 5437 5450 5453 5446 5435 5432 5419
5472 5464 5457 5449 5449 5448 5438 5437 5449 5461 5442 5440 5447 5440 5447 5453 5454 5452 5462 5460 5458 5455 5457 5454 5455 5452 5450 5451 5446 5441 5438 5444 5460 5478 5464 5460 5448 5428 5428 5434 5435 5445 5443 5415
5453 5450 5444 5444 5442 5440 5445 5445 5451 5447 5428 5443 5446 5443 5448 5449 5453 5451 5448 5450 5454 5451 5446 5447 5446 5438 5438 5437 5439 5440 5438 5442 5457 5479 5464 5465 5436 5421 5421 5422 5417 5419 5415 5407
5435 5437 5435 5430 5431 5437 5437 5440 5447 5441 5430 5437 5432 5438 5438 5438 5442 5443 5444 5443 5443 5439 5444 5452 5458 5456 5453 5445 5444 5438 5435 5439 5453 5471 5465 5445 5432 5419 5421 5425 5412 5405 5409 5410
5424 5425 5423 5422 5426 5434 5441 5434 5433 5437 5433 5424 5438 5435 5438 5433 5432 5434 5434 5431 5431 5436 5440 5445 5448 5443 5449 5446 5441 5439 5435 5438 5442 5457 5465 5461 5419 5410 5413 5420 5424 5401 5400 5400
5411 5415 5418 5425 5426 5434 5434 5423 5429 5438 5417 5414 5426 5427 5430 5427 5429 5427 5425 5426 5428 5427 5429 5435 5437 5436 5433 5434 5434 5431 5433 5432 5432 5435 5443 5422 5404 5408 5412 5430 5413 5394 5392 5392
5396 5399 5403 5409 5415 5423 5427 5412 5424 5437 5415 5406 5416 5424 5422 5421 5425 5427 5417 5420 5418 5417 5420 5426 5417 5422 5417 5417 5418 5422 5416 5416 5418 5423 5428 5427 5396 5408 5421 5397 5389 5386 5386 5383
5388 5392 5396 5403 5410 5415 5421 5412 5417 5425 5418 5404 5407 5413 5418 5429 5429 5420 5410 5418 5417 5415 5410 5404 5402 5408 5404 5408 5416 5407 5407 5402 5404 5397 5393 5381 5384 5386 5383 5389 5385 5381 5379 5374
5380 5386 5393 5397 5403 5407 5413 5404 5409 5417 5408 5405 5406 5405 5411 5420 5422 5423 5418 5407 5410 5408 5400 5399 5393 5401 5396 5403 5397 5398 5392 5392 5390 5388 5378 5375 5372 5372 5370 5371 5371 5375 5369 5364
5375 5381 5386 5390 5394 5399 5407 5403 5404 5414 5409 5398 5392 5401 5405 5408 5414 5415 5416 5411 5403 5398 5394 5394 5391 5398 5387 5391 5388 5390 5383 5387 5385 5376 5370 5367 5364 5362 5363 5362 5361 5359 5355 5355
5367 5372 5379 5384 5390 5395 5400 5400 5400 5407 5414 5397 5392 5394 5395 5400 5404 5405 5405 5404 5397 5394 5394 5392 5391 5382 5384 5380 5381 5379 5376 5380 5385 5384 5375 5372 5361 5357 5357 5356 5352 5350 5349 5344
5362 5366 5373 5379 5384 5391 5397 5388 5395 5403 5409 5401 5389 5380 5389 5391 5395 5396 5395 5392 5388 5387 5390 5383 5377 5375 5382 5380 5374 5365 5364 5367 5371 5372 5363 5359 5353 5349 5349 5348 5343 5341 5340 5338
5357 5361 5368 5374 5382 5387 5384 5386 5390 5397 5403 5395 5383 5384 5384 5389 5388 5386 5386 5384 5379 5384 5380 5379 5379 5378 5378 5378 5374 5362 5358 5359 5359 5358 5358 5351 5349 5345 5341 5338 5334 5332 5331 5328
5352 5358 5366 5369 5376 5379 5378 5380 5388 5395 5394 5393 5382 5379 5384 5386 5385 5385 5372 5377 5375 5373 5372 5371 5376 5373 5376 5368 5364 5359 5356 5356 5356 5353 5354 5354 5341 5335 5331 5329 5327 5327 5324 5319
5350 5355 5360 5366 5364 5367 5368 5376 5384 5391 5391 5381 5375 5383 5382 5379 5373 5370 5369 5368 5372 5364 5372 5372 5370 5362 5371 5366 5363 5359 5358 5357 5347 5341 5339 5337 5335 5329 5325 5323 5320 5320 5314 5310
5348 5351 5346 5340 5348 5358 5367 5369 5371 5374 5373 5374 5370 5367 5380 5376 5364 5363 5366 5360 5367 5373 5370 5365 5369 5362 5349 5346 5350 5352 5351 5348 5343 5338 5331 5330 5326 5324 5319 5316 5312 5310 5303 5294
5342 5333 5335 5342 5351 5357 5358 5354 5360 5360 5366 5366 5363 5371 5379 5366 5374 5369 5357 5361 5359 5368 5369 5369 5358 5367 5351 5341 5340 5340 5342 5341 5338 5339 5339 5335 5330 5320 5312 5306 5302 5296 5290 5285
5339 5343 5340 5343 5346 5349 5352 5352 5358 5363 5368 5359 5363 5366 5372 5369 5366 5366 5355 5362 5357 5365 5359 5365 5360 5354 5341 5339 5335 5332 5332 5331 5328 5329 5327 5324 5319 5312 5306 5299 5292 5287 5281 5273
5333 5337 5335 5339 5336 5334 5338 5343 5353 5357 5356 5355 5361 5362 5367 5365 5365 5361 5369 5359 5355 5355 5356 5362 5365 5341 5338 5335 5331 5326 5324 5323 5320 5316 5313 5309 5304 5300 5295 5286 5280 5275 5270 5263
5326 5325 5323 5323 5337 5340 5341 5352 5354 5352 5354 5358 5361 5357 5368 5353 5360 5342 5352 5348 5357 5358 5350 5368 5358 5341 5335 5331 5326 5320 5312 5309 5307 5302 5298 5294 5290 5283 5279 5276 5272 5269 5266 5258
5321 5326 5328 5331 5333 5341 5346 5342 5354 5354 5349 5357 5359 5357 5358 5344 5347 5350 5355 5358 5351 5352 5365 5361 5344 5338 5333 5326 5320 5311 5305 5299 5295 5292 5290 5284 5281 5281 5274 5268 5266 5264 5257 5253
5323 5323 5327 5327 5337 5345 5350 5349 5353 5349 5349 5353 5360 5350 5345 5344 5344 5349 5345 5358 5351 5361 5350 5341 5332 5332 5325 5319 5313 5306 5300 5297 5291 5289 5285 5281 5277 5276 5274 5265 5263 5257 5255 5250
5318 5313 5313 5326 5330 5333 5343 5351 5350 5340 5355 5352 5353 5347 5346 5342 5344 5346 5347 5353 5353 5340 5339 5334 5329 5330 5322 5312 5305 5298 5295 5292 5288 5283 5281 5278 5273 5270 5269 5268 5263 5256 5253 5244